Location: Jefferson Observatory
(34.1602°N, 83.6058°W)
Time: 18:23:07
(UTC-05:00)

Tiangong 2 - Visible Passes

Search period start: 19 January 2018 00:00
Search period end: 29 January 2018 00:00
Orbit: 384 x 390 km, 42.8° (Epoch: 18 January)

Date Brightness Start Highest point End Pass type
(mag) Time Alt. Az. Time Alt. Az. Time Alt. Az.
19 Jan 2.5 05:48:16 36° ENE 05:48:16 36° ENE 05:50:17 10° ENE visible
20 Jan 2.2 06:24:55 28° NNW 06:25:19 29° NNW 06:28:10 10° NE visible
21 Jan 4.1 05:29:09 13° NE 05:29:09 13° NE 05:29:35 10° NE visible
21 Jan 3.0 07:01:31 10° NW 07:03:48 18° N 07:06:07 10° NE visible
22 Jan 3.0 06:05:33 20° N 06:05:33 20° N 06:07:24 10° NE visible
23 Jan 3.2 06:41:53 13° NNW 06:43:24 17° N 06:45:36 10° NE visible
24 Jan 3.8 05:45:53 14° NNE 05:45:53 14° NNE 05:46:42 10° NE visible
25 Jan 3.1 06:22:07 16° NNW 06:22:59 18° N 06:25:16 10° NE visible
26 Jan 4.3 05:26:05 10° NE 05:26:05 10° NE 05:26:10 10° NE visible
26 Jan 2.6 06:58:36 10° NW 07:01:25 28° NNE 07:04:15 10° E visible
27 Jan 2.9 06:02:19 21° N 06:02:29 21° NNE 06:05:01 10° ENE visible
28 Jan 1.9 06:38:35 17° NW 06:40:48 44° NNE 06:43:52 10° E visible
